This demonstration page uses our WeatherBlox Daily Observations layout. Learn more.

Left ArrowRight Arrow

Hourly Observations for January 2, 2022

Temp ( °F °C ) Dew Point ( °F °C ) Humidity (%) Winds ( mph kmh ) Pressure ( in mb ) Visibility ( mi km ) Precip ( " mm )
12:54 am 00:54 Clear -1 -18.3 -11 -23.9 62 62 N 8 13 30.37 1029 10 16 0.00 0.00
1:54 am 01:54 Clear -2 -18.9 -11 -23.9 65 65 NW 6 9 30.39 1029 10 16 0.00 0.00
2:54 am 02:54 Clear -3 -19.4 -11 -23.9 68 68 NW 5 7 30.40 1029 10 16 0.00 0.00
3:54 am 03:54 Clear -3 -19.4 -12 -24.4 65 65 NW 7 11 30.39 1029 10 16 0.00 0.00
4:54 am 04:54 Clear -4 -20 -12 -24.4 68 68 NW 6 9 30.40 1029 10 16 0.00 0.00
5:54 am 05:54 Clear -5 -20.6 -12 -24.4 72 72 NW 3 6 30.40 1030 10 16 0.00 0.00
6:54 am 06:54 Clear -8 -22.2 -14 -25.6 74 74 Calm 30.41 1030 10 16 0.00 0.00
7:54 am 07:54 Sunny -6 -21.1 -13 -25 71 71 Calm 30.42 1030 10 16 0.00 0.00
8:54 am 08:54 Sunny -6 -21.1 -12 -24.4 75 75 Calm 30.43 1031 10 16 0.00 0.00
9:54 am 09:54 Sunny -3 -19.4 -10 -23.3 71 71 Calm 30.45 1031 10 16 0.00 0.00
10:54 am 10:54 Sunny 3 -16.1 -7 -21.7 62 62 S 6 9 30.43 1031 10 16 0.00 0.00
11:54 am 11:54 Sunny 7 -13.9 -5 -20.6 57 57 SSW 7 11 30.41 1030 10 16 0.00 0.00
12:54 pm 12:54 Sunny 11 -11.7 -3 -19.4 53 53 SSW 7 11 30.38 1029 10 16 0.00 0.00
1:54 pm 13:54 Sunny 13 -10.6 -1 -18.3 54 54 S 7 11 30.36 1028 10 16 0.00 0.00
2:54 pm 14:54 Sunny 13 -10.6 0 -17.8 56 56 SSW 8 13 30.35 1028 10 16 0.00 0.00
3:54 pm 15:54 Sunny 14 -10 1 -17.2 56 56 SW 10 17 30.37 1028 10 16 0.00 0.00
4:54 pm 16:54 Sunny 13 -10.6 1 -17.2 59 59 S 6 9 30.38 1029 10 16 0.00 0.00
5:54 pm 17:54 Clear 8 -13.3 -1 -18.3 66 66 S 8 13 30.38 1029 10 16 0.00 0.00
6:54 pm 18:54 Clear 7 -13.9 -1 -18.3 70 70 S 7 11 30.39 1029 10 16 0.00 0.00
7:54 pm 19:54 Clear 6 -14.4 -2 -18.9 69 69 SSE 6 9 30.39 1029 10 16 0.00 0.00
8:54 pm 20:54 Clear 4 -15.6 -2 -18.9 76 76 S 7 11 30.38 1029 10 16 0.00 0.00
9:54 pm 21:54 Clear 5 -15 -1 -18.3 76 76 S 5 7 30.37 1029 10 16 0.00 0.00
10:54 pm 22:54 Clear 4 -15.6 -2 -18.9 76 76 SSE 6 9 30.37 1028 10 16 0.00 0.00
11:54 pm 23:54 Clear 5 -15 -1 -18.3 76 76 SSE 5 7 30.36 1028 10 16 0.00 0.00

Powered by AerisWeather